Location: Ipswich
(52.0579°N, 1.1528°E)
Time: 20:14:49
(UTC+01:00)

ISS - Pass Details

Date: 16 May 2026
Orbit: 414 x 424 km, 51.6° (Epoch: 15 May)

Event Time Altitude Azimuth Distance (km) Brightness Sun altitude
Rises 23:08:52 0° 281° (W) 2,355 0.6 -15.2°
Reaches altitude 10° 23:11:00 10° 277° (W) 1,491 -0.6 -15.4°
Maximum altitude 23:14:15 52° 200° (SSW) 527 -3.6 -15.6°
Enters shadow 23:15:06 39° 151° (SSE) 641 -3.4 -15.6°
